MAU53 EGKK-FIMP

Flight info

Callsign MAU53
Flight time N/A
Altitude 35000
Route SFD Y47 DRAKE L151 SITET UN859 SOPIL DCT BALAN DCT EVPOK DCT NARAK DCT GAI DCT LOMRA DCT ROCAN DCT PUMAL N859 MOGIL UB31 ZEM/N0489F360 UM989 BSA/N0492F350 UR985 RIMEL UA605 BARKA/N0490F370 UA605 DJA UB730 DIR UM731 FL UT325 MISRU/N0487F390 UT325 POGBA/N0491F380 UT325 SIPKI/N0488F390 UW325 NN UA401 DV UG661 DASTA/N0484F410 UG661 ANVOR DCT TIBAG TIBAG2F
Aircraft A359/H-SDE2E3GHIJ3J4J5LM1ORWXY/LB1D1

Departure

Time N/A
Airport London Gatwick Airport (EGKK)

Arrival

Time 2026-04-29 09:03
Airport Sir Seewoosagur Ramgoolam International Airport (FIMP)
Time Latitude Longitude Altitude Speed Heading
2026-04-29 07:57 -16.13289 51.33788 40941 ft 479 kts 127°
2026-04-29 07:57 -16.15273 51.36580 40937 ft 479 kts 127°
2026-04-29 07:57 -16.19216 51.42134 40934 ft 478 kts 127°
2026-04-29 07:58 -16.23175 51.47713 40932 ft 478 kts 127°
2026-04-29 07:58 -16.27130 51.53291 40921 ft 478 kts 127°
2026-04-29 07:59 -16.31065 51.58846 40926 ft 478 kts 127°
2026-04-29 07:59 -16.35002 51.64408 40934 ft 479 kts 127°
2026-04-29 08:00 -16.38963 51.70007 40936 ft 479 kts 127°
2026-04-29 08:00 -16.42900 51.75578 40936 ft 479 kts 127°
2026-04-29 08:01 -16.46859 51.81184 40935 ft 479 kts 127°
2026-04-29 08:01 -16.50790 51.86755 40929 ft 479 kts 127°
2026-04-29 08:02 -16.54740 51.92356 40931 ft 478 kts 127°
2026-04-29 08:02 -16.58663 51.97925 40926 ft 478 kts 127°
2026-04-29 08:03 -16.62620 52.03546 40941 ft 478 kts 127°
2026-04-29 08:03 -16.66532 52.09107 40944 ft 478 kts 127°
2026-04-29 08:04 -16.70467 52.14705 40942 ft 478 kts 127°
2026-04-29 08:04 -16.74411 52.20321 40949 ft 479 kts 127°
2026-04-29 08:05 -16.78330 52.25905 40935 ft 479 kts 127°
2026-04-29 08:05 -16.82277 52.31534 40944 ft 479 kts 127°
2026-04-29 08:06 -16.86203 52.37138 40938 ft 479 kts 127°
2026-04-29 08:06 -16.90144 52.42768 40939 ft 479 kts 127°
2026-04-29 08:07 -16.94055 52.48362 40942 ft 479 kts 127°
2026-04-29 08:07 -16.97988 52.53991 40937 ft 479 kts 127°
2026-04-29 08:08 -17.01923 52.59628 40949 ft 478 kts 127°
2026-04-29 08:08 -17.05819 52.65213 40944 ft 478 kts 127°
2026-04-29 08:09 -17.09744 52.70844 40937 ft 478 kts 127°
2026-04-29 08:09 -17.13668 52.76479 40939 ft 479 kts 127°
2026-04-29 08:10 -17.17572 52.82089 40943 ft 479 kts 127°
2026-04-29 08:10 -17.21497 52.87734 40947 ft 479 kts 127°
2026-04-29 08:11 -17.25421 52.93383 40950 ft 479 kts 127°
2026-04-29 08:11 -17.29324 52.99005 40953 ft 479 kts 127°
2026-04-29 08:12 -17.33246 53.04661 40947 ft 479 kts 127°
2026-04-29 08:12 -17.37139 53.10279 40949 ft 479 kts 127°
2026-04-29 08:13 -17.41056 53.15935 40950 ft 479 kts 127°
2026-04-29 08:13 -17.44947 53.21560 40955 ft 479 kts 127°
2026-04-29 08:14 -17.48863 53.27225 40952 ft 479 kts 127°
2026-04-29 08:14 -17.52764 53.32873 40955 ft 479 kts 127°
2026-04-29 08:15 -17.56668 53.38529 40955 ft 479 kts 127°
2026-04-29 08:15 -17.60559 53.44173 40956 ft 479 kts 127°
2026-04-29 08:16 -17.64463 53.49840 40954 ft 479 kts 127°
2026-04-29 08:16 -17.68343 53.55476 40964 ft 479 kts 127°
2026-04-29 08:17 -17.72246 53.61151 40958 ft 478 kts 127°
2026-04-29 08:17 -17.76116 53.66783 40958 ft 478 kts 127°
2026-04-29 08:18 -17.80010 53.72455 40958 ft 478 kts 127°
2026-04-29 08:18 -17.83251 53.77179 40957 ft 478 kts 127°
2026-04-29 08:19 -17.87148 53.82863 40961 ft 478 kts 127°
2026-04-29 08:19 -17.91016 53.88511 40956 ft 478 kts 127°
2026-04-29 08:20 -17.94926 53.94224 40964 ft 479 kts 127°
2026-04-29 08:20 -17.98798 53.99887 40967 ft 480 kts 127°
2026-04-29 08:21 -18.02697 54.05594 40963 ft 479 kts 127°
2026-04-29 08:21 -18.06570 54.11268 40964 ft 479 kts 127°
2026-04-29 08:22 -18.09950 54.17345 40963 ft 483 kts 114°
2026-04-29 08:22 -18.12027 54.24032 40963 ft 485 kts 109°
2026-04-29 08:23 -18.13949 54.30848 40966 ft 485 kts 109°
2026-04-29 08:23 -18.15850 54.37614 40966 ft 485 kts 108°
2026-04-29 08:24 -18.17764 54.44436 40967 ft 485 kts 108°
2026-04-29 08:24 -18.19672 54.51250 40969 ft 485 kts 109°
2026-04-29 08:25 -18.21570 54.58037 40968 ft 485 kts 108°
2026-04-29 08:25 -18.23464 54.64821 40969 ft 485 kts 108°
2026-04-29 08:26 -18.25364 54.71638 40969 ft 485 kts 108°
2026-04-29 08:26 -18.26685 54.76383 40968 ft 485 kts 108°
2026-04-29 08:27 -18.26932 54.77271 40968 ft 485 kts 108°
2026-04-29 08:28 -18.27578 54.79592 40971 ft 485 kts 108°
2026-04-29 08:29 -18.29463 54.86375 40972 ft 485 kts 108°
2026-04-29 08:29 -18.31356 54.93198 40971 ft 485 kts 108°
2026-04-29 08:30 -18.34196 55.03450 40975 ft 485 kts 108°
2026-04-29 08:31 -18.36073 55.10242 40973 ft 485 kts 108°
2026-04-29 08:31 -18.37962 55.17084 40975 ft 485 kts 108°
2026-04-29 08:32 -18.39845 55.23919 40973 ft 485 kts 108°
2026-04-29 08:32 -18.41717 55.30720 40975 ft 485 kts 108°
2026-04-29 08:33 -18.43598 55.37567 40975 ft 485 kts 108°
2026-04-29 08:33 -18.45465 55.44371 40974 ft 485 kts 108°
2026-04-29 08:34 -18.47346 55.51220 40972 ft 485 kts 109°
2026-04-29 08:34 -18.48587 55.54514 40975 ft 481 kts 121°
2026-04-29 08:34 -18.50471 55.57341 40976 ft 475 kts 135°
2026-04-29 08:35 -18.55229 55.62178 40979 ft 475 kts 139°
2026-04-29 08:35 -18.60044 55.66922 40980 ft 476 kts 139°
2026-04-29 08:36 -18.64894 55.71725 40978 ft 477 kts 139°
2026-04-29 08:36 -18.69733 55.76529 40980 ft 477 kts 139°
2026-04-29 08:37 -18.74530 55.81298 40980 ft 477 kts 139°
2026-04-29 08:37 -18.79371 55.86116 40980 ft 477 kts 139°
2026-04-29 08:38 -18.84200 55.90926 40979 ft 477 kts 139°
2026-04-29 08:38 -18.89007 55.95717 40979 ft 477 kts 139°
2026-04-29 08:39 -18.93838 56.00538 40690 ft 477 kts 139°
2026-04-29 08:39 -18.96271 56.02966 40449 ft 478 kts 139°
2026-04-29 08:39 -18.98667 56.05359 40164 ft 477 kts 139°
2026-04-29 08:39 -19.01077 56.07768 39516 ft 477 kts 139°
2026-04-29 08:40 -19.03495 56.10185 38794 ft 479 kts 140°
2026-04-29 08:40 -19.05932 56.12621 37993 ft 481 kts 140°
2026-04-29 08:40 -19.08363 56.15053 37309 ft 479 kts 140°
2026-04-29 08:40 -19.10720 56.17412 36669 ft 478 kts 139°
2026-04-29 08:41 -19.13169 56.19864 36003 ft 477 kts 139°
2026-04-29 08:41 -19.15579 56.22278 35323 ft 476 kts 139°
2026-04-29 08:41 -19.17999 56.24703 34645 ft 476 kts 139°
2026-04-29 08:41 -19.19115 56.25821 34278 ft 477 kts 139°
2026-04-29 08:42 -19.20120 56.26828 33959 ft 478 kts 139°
2026-04-29 08:42 -19.22546 56.29261 33070 ft 479 kts 139°
2026-04-29 08:42 -19.24972 56.31694 32260 ft 480 kts 139°
2026-04-29 08:43 -19.27368 56.34100 31443 ft 481 kts 139°
2026-04-29 08:43 -19.29815 56.36556 30580 ft 483 kts 138°
2026-04-29 08:43 -19.32261 56.39013 29629 ft 485 kts 138°
2026-04-29 08:43 -19.34701 56.41466 28889 ft 481 kts 138°
2026-04-29 08:44 -19.37094 56.43873 28237 ft 477 kts 138°
2026-04-29 08:44 -19.39492 56.46286 27576 ft 472 kts 138°
2026-04-29 08:44 -19.41863 56.48672 26949 ft 468 kts 137°
2026-04-29 08:44 -19.44211 56.51036 26319 ft 464 kts 137°
2026-04-29 08:45 -19.46541 56.53383 25702 ft 460 kts 137°
2026-04-29 08:45 -19.48857 56.55716 25075 ft 456 kts 137°
2026-04-29 08:45 -19.51122 56.58000 24461 ft 453 kts 137°
2026-04-29 08:45 -19.53400 56.60297 23849 ft 450 kts 137°
2026-04-29 08:46 -19.55666 56.62583 23151 ft 447 kts 137°
2026-04-29 08:46 -19.57908 56.64847 22506 ft 442 kts 137°
2026-04-29 08:46 -19.60132 56.67092 21889 ft 437 kts 137°
2026-04-29 08:46 -19.62329 56.69311 21279 ft 432 kts 137°
2026-04-29 08:47 -19.64473 56.71479 20688 ft 428 kts 137°
2026-04-29 08:47 -19.66621 56.73650 20092 ft 424 kts 137°
2026-04-29 08:47 -19.68750 56.75803 19478 ft 420 kts 137°
2026-04-29 08:47 -19.70858 56.77935 18863 ft 417 kts 137°
2026-04-29 08:48 -19.72929 56.80031 18254 ft 414 kts 137°
2026-04-29 08:48 -19.75011 56.82139 17575 ft 411 kts 137°
2026-04-29 08:48 -19.77070 56.84224 16945 ft 406 kts 136°
2026-04-29 08:48 -19.79108 56.86288 16309 ft 402 kts 136°
2026-04-29 08:49 -19.81124 56.88333 15706 ft 398 kts 136°
2026-04-29 08:49 -19.83127 56.90362 15080 ft 395 kts 136°
2026-04-29 08:49 -19.85084 56.92346 14472 ft 393 kts 136°
2026-04-29 08:49 -19.87061 56.94354 13843 ft 390 kts 136°
2026-04-29 08:50 -19.89025 56.96347 13156 ft 388 kts 136°
2026-04-29 08:50 -19.90944 56.98297 12525 ft 383 kts 136°
2026-04-29 08:50 -19.92859 57.00242 11898 ft 379 kts 136°
2026-04-29 08:50 -19.94757 57.02171 11475 ft 371 kts 136°
2026-04-29 08:51 -19.96585 57.04029 11327 ft 354 kts 136°
2026-04-29 08:51 -19.98325 57.05798 11195 ft 337 kts 136°
2026-04-29 08:51 -19.99962 57.07463 11086 ft 322 kts 136°
2026-04-29 08:51 -20.01550 57.09079 10938 ft 309 kts 136°
2026-04-29 08:52 -20.03074 57.10630 10827 ft 296 kts 136°
2026-04-29 08:52 -20.04533 57.12116 10703 ft 284 kts 136°
2026-04-29 08:52 -20.05940 57.13549 10510 ft 278 kts 136°
2026-04-29 08:52 -20.07311 57.14946 10200 ft 276 kts 136°
2026-04-29 08:53 -20.08695 57.16356 9877 ft 276 kts 136°
2026-04-29 08:53 -20.10121 57.17809 9651 ft 290 kts 136°
2026-04-29 08:53 -20.11589 57.19305 9516 ft 290 kts 136°
2026-04-29 08:53 -20.13049 57.20793 9019 ft 291 kts 136°
2026-04-29 08:54 -20.14519 57.22292 8535 ft 291 kts 136°
2026-04-29 08:54 -20.15941 57.23744 8189 ft 288 kts 136°
2026-04-29 08:54 -20.17400 57.25232 7846 ft 287 kts 135°
2026-04-29 08:54 -20.18839 57.26701 7501 ft 285 kts 135°
2026-04-29 08:55 -20.20183 57.28256 7146 ft 283 kts 126°
2026-04-29 08:55 -20.21344 57.29944 6794 ft 281 kts 124°
2026-04-29 08:55 -20.22412 57.31639 6466 ft 280 kts 122°
2026-04-29 08:55 -20.23483 57.33371 6113 ft 278 kts 122°
2026-04-29 08:56 -20.24551 57.35084 5785 ft 276 kts 122°
2026-04-29 08:56 -20.25618 57.36788 5451 ft 275 kts 123°
2026-04-29 08:56 -20.26670 57.38456 5139 ft 273 kts 122°
2026-04-29 08:56 -20.27727 57.40135 4810 ft 272 kts 122°
2026-04-29 08:57 -20.28787 57.41812 4576 ft 268 kts 122°
2026-04-29 08:57 -20.29809 57.43429 4496 ft 257 kts 121°
2026-04-29 08:57 -20.30792 57.44976 4431 ft 247 kts 121°
2026-04-29 08:57 -20.31719 57.46444 4339 ft 237 kts 121°
2026-04-29 08:58 -20.32620 57.47884 4198 ft 228 kts 120°
2026-04-29 08:58 -20.33502 57.49246 4094 ft 220 kts 125°
2026-04-29 08:58 -20.34391 57.50520 3987 ft 206 kts 117°
2026-04-29 08:58 -20.35011 57.51818 3793 ft 187 kts 113°
2026-04-29 08:59 -20.35604 57.52978 3507 ft 174 kts 114°
2026-04-29 08:59 -20.36152 57.54098 3256 ft 165 kts 113°
2026-04-29 08:59 -20.36666 57.55162 3008 ft 160 kts 114°
2026-04-29 08:59 -20.37172 57.56202 2756 ft 155 kts 112°
2026-04-29 09:00 -20.37655 57.57194 2527 ft 151 kts 111°
2026-04-29 09:00 -20.38133 57.58185 2296 ft 147 kts 112°
2026-04-29 09:00 -20.38586 57.59123 2074 ft 140 kts 110°
2026-04-29 09:00 -20.39027 57.60042 1872 ft 138 kts 111°
2026-04-29 09:01 -20.39462 57.60950 1687 ft 138 kts 113°
2026-04-29 09:01 -20.39901 57.61860 1479 ft 136 kts 111°
2026-04-29 09:01 -20.40329 57.62754 1252 ft 136 kts 112°
2026-04-29 09:01 -20.40740 57.63633 1014 ft 134 kts 112°
2026-04-29 09:02 -20.41170 57.64509 815 ft 133 kts 113°
2026-04-29 09:02 -20.41592 57.65389 654 ft 132 kts 112°
2026-04-29 09:02 -20.42012 57.66258 415 ft 130 kts 112°
2026-04-29 09:02 -20.42434 57.67122 253 ft 131 kts 112°
2026-04-29 09:03 -20.42823 57.67939 206 ft 103 kts 117°
2026-04-29 09:03 -20.43023 57.68354 201 ft 38 kts 117°
2026-04-29 09:03 -20.43120 57.68478 202 ft 12 kts 172°
2026-04-29 09:03 -20.43195 57.68429 203 ft 14 kts 215°
2026-04-29 09:04 -20.43253 57.68394 191 ft 15 kts 207°
2026-04-29 09:04 -20.43272 57.68289 202 ft 13 kts 294°
2026-04-29 09:04 -20.43233 57.68208 207 ft 12 kts 297°
2026-04-29 09:04 -20.43192 57.68122 207 ft 15 kts 297°
2026-04-29 09:05 -20.43159 57.68053 207 ft 16 kts 297°
2026-04-29 09:05 -20.43104 57.67937 207 ft 19 kts 297°
2026-04-29 09:05 -20.43090 57.67898 205 ft 2 kts 267°
2026-04-29 09:05 -20.43103 57.67889 207 ft 6 kts 210°
2026-04-29 09:06 -20.43150 57.67861 201 ft 9 kts 212°
2026-04-29 09:06 -20.43178 57.67842 205 ft 2 kts 211°
2026-04-29 09:06 -20.43179 57.67841 204 ft 0 kts 211°
2026-04-29 09:07 -20.43180 57.67841 204 ft 0 kts 212°